カタログに戻る

COSMOS 1275 DEB

運用中PO
NORAD 12766·DEBRIS·🇷🇺 Russia

打ち上げ Jun 4, 1981 から Plesetsk Cosmodrome

Loading…

次のパス (今後24時間)

TLE

最新Source: Space-Track

元期: Sep 14, 2026, 04:10 UTC

1 12766U 81053DK  26257.17393899  .00000305  00000-0  31582-3 0  9990
2 12766  82.9470  53.1550 0100084  36.2996  86.7945 13.70465835244035

AllMySatでCOSMOS 1275 DEBをリアルタイム追跡

Download on the App Store